Greenville, AL

1:53 PM CST on February 14, 2016 (GMT -0600)
Greenville Municipal

Weather History for KPRN - December, 2013

Change the Weather History Date:

Tuesday, December 10, 2013

  Actual Average Record
Temperature  
Mean Temperature 45 °F -  
Max Temperature 55 °F 63 °F 77 °F (1943)
Min Temperature 33 °F 41 °F 20 °F (1974)
Degree Days  
Heating Degree Days 20    
Moisture  
Dew Point 40 °F    
Average Humidity 85    
Maximum Humidity 100    
Minimum Humidity 61    
Precipitation  
Precipitation 0.23 in - - ()
Sea Level Pressure  
Sea Level Pressure 30.21 in    
Wind  
Wind Speed 7 mph (NNW)    
Max Wind Speed 16 mph    
Max Gust Speed 29 mph    
Visibility 8 miles    
Events Fog , Rain    
Averages and records for this station are not official NWS values.
T = Trace of Precipitation, MM = Missing Value Source: NWS Daily Summary

Daily Weather History Graph

Daily Weather History Graph

Search for Another Location

Airport or City:

Trip Planner

Search our weather history database for the weather conditions in past years. The results will help you decide how hot, cold, wet, or windy it might be!

Date:

Astronomy

Dec. 10, 2013 Rise Set
Actual Time 6:35 AM CST 4:42 PM CST
Civil Twilight 6:09 AM CST 5:09 PM CST
Nautical Twilight 5:38 AM CST 5:40 PM CST
Astronomical Twilight 5:08 AM CST 6:09 PM CST
Moon 12:25 PM CST (12/10) 12:14 AM CST (12/10)
Length of Visible Light 11h 00m
Length of Day
10h 06m
Waxing Gibbous, 62% of the Moon is Illuminated
Dec 10
Waxing Gibbous
Dec 17
Full
Dec 25
Last Quarter
Jan 1
New
Jan 7
First Quarter

Hourly Weather History & Observations

Time (CST) Temp. Windchill Dew Point Humidity Pressure Visibility Wind Dir Wind Speed Gust Speed Precip Events Conditions
12:28 AM 55.4 °F - 53.6 °F 94% 30.01 in 0.8 mi Calm Calm - N/A   Mist
12:56 AM 55.0 °F - 54.0 °F 96% 29.99 in 0.5 mi South 3.5 mph - N/A Fog Fog
1:56 AM 55.9 °F - 55.9 °F 100% 30.02 in 0.5 mi WSW 4.6 mph - N/A Fog Fog
2:52 AM 55.4 °F - 53.6 °F 94% 30.04 in 1.2 mi WNW 8.1 mph - 0.00 in Rain Light Rain
2:56 AM 54.0 °F - 54.0 °F 100% 30.04 in 2.0 mi WNW 9.2 mph 16.1 mph 0.00 in   Overcast
3:06 AM 53.6 °F - 53.6 °F 100% 30.05 in 6.0 mi WNW 8.1 mph - N/A   Overcast
3:56 AM 46.9 °F - 45.0 °F 93% 30.08 in 4.0 mi WNW 15.0 mph 20.7 mph 0.01 in Rain Light Rain
4:56 AM 45.0 °F 43.5 °F 44.1 °F 97% 30.11 in 3.0 mi West 3.5 mph - 0.03 in Rain Light Rain
5:05 AM 44.6 °F 42.2 °F 44.6 °F 100% 30.11 in 2.5 mi Variable 4.6 mph - 0.07 in Rain Heavy Rain
5:14 AM 44.6 °F 40.7 °F 44.6 °F 100% 30.13 in 1.5 mi West 6.9 mph - 0.15 in Rain Heavy Rain
5:23 AM 44.6 °F 41.4 °F 42.8 °F 93% 30.12 in 2.0 mi NW 5.8 mph - 0.19 in Rain Heavy Rain
5:33 AM 44.6 °F 38.4 °F 42.8 °F 93% 30.13 in 9.0 mi NW 12.7 mph 17.3 mph 0.19 in Rain Light Rain
5:41 AM 44.6 °F 40.2 °F 42.8 °F 93% 30.13 in 10.0 mi NW 8.1 mph 17.3 mph 0.19 in   Overcast
5:56 AM 44.1 °F 39.5 °F 42.1 °F 93% 30.14 in 10.0 mi NW 8.1 mph - 0.19 in   Overcast
6:56 AM 44.1 °F 41.5 °F 42.1 °F 93% 30.16 in 10.0 mi WNW 4.6 mph - N/A   Overcast
7:56 AM 43.0 °F 37.2 °F 41.0 °F 93% 30.22 in 10.0 mi NW 10.4 mph - N/A   Overcast
8:56 AM 41.0 °F 33.1 °F 37.0 °F 86% 30.27 in 10.0 mi NW 15.0 mph 28.8 mph N/A   Overcast
9:56 AM 39.9 °F 31.4 °F 37.0 °F 89% 30.32 in 10.0 mi NNW 16.1 mph 21.9 mph N/A   Overcast
10:56 AM 39.9 °F 32.5 °F 36.0 °F 86% 30.32 in 10.0 mi NNW 12.7 mph - N/A   Overcast
11:56 AM 41.0 °F 35.2 °F 35.1 °F 79% 30.30 in 10.0 mi North 9.2 mph 20.7 mph N/A   Overcast
12:04 PM 42.8 °F 36.6 °F 35.6 °F 76% 30.29 in 10.0 mi North 11.5 mph 18.4 mph N/A   Overcast
12:56 PM 44.1 °F 38.6 °F 36.0 °F 73% 30.27 in 10.0 mi North 10.4 mph 17.3 mph N/A   Overcast
1:03 PM 44.6 °F 39.2 °F 35.6 °F 71% 30.27 in 10.0 mi North 10.4 mph 18.4 mph N/A   Mostly Cloudy
1:56 PM 46.0 °F 40.6 °F 35.1 °F 66% 30.27 in 10.0 mi NNW 11.5 mph - N/A   Mostly Cloudy
2:20 PM 46.4 °F 41.5 °F 35.6 °F 66% 30.27 in 10.0 mi North 10.4 mph - N/A   Scattered Clouds
2:56 PM 48.0 °F - 35.1 °F 61% 30.27 in 10.0 mi North 10.4 mph - N/A   Clear
3:56 PM 46.9 °F - 34.0 °F 61% 30.28 in 10.0 mi NNE 9.2 mph - N/A   Clear
4:56 PM 43.0 °F 39.5 °F 34.0 °F 71% 30.30 in 10.0 mi North 5.8 mph - N/A   Clear
5:56 PM 41.0 °F 39.0 °F 34.0 °F 76% 30.31 in 10.0 mi North 3.5 mph - N/A   Clear
6:56 PM 39.0 °F 34.0 °F 34.0 °F 82% 30.32 in 10.0 mi North 6.9 mph - N/A   Clear
7:56 PM 39.0 °F 34.8 °F 32.0 °F 76% 30.33 in 10.0 mi North 5.8 mph - N/A   Clear
8:56 PM 37.9 °F 35.5 °F 30.9 °F 76% 30.34 in 10.0 mi North 3.5 mph - N/A   Clear
9:56 PM 36.0 °F 33.3 °F 30.0 °F 79% 30.35 in 10.0 mi NE 3.5 mph - N/A   Clear
10:56 PM 35.1 °F - 30.9 °F 85% 30.35 in 10.0 mi Calm Calm - N/A   Clear
11:56 PM 33.1 °F 28.7 °F 28.9 °F 85% 30.34 in 10.0 mi NNE 4.6 mph - N/A   Clear